Baku, Azerbaijan

11:13 PM +04 on August 21, 2018 (GMT +0400)
Bina

Weather History for UBBB - February, 2018

Change the Weather History Date:

Saturday, February 24, 2018

  Actual Average Record
Temperature  
Mean Temperature 46 °F -  
Max Temperature 50 °F - - ()
Min Temperature 42 °F - - ()
Degree Days  
Heating Degree Days 19    
Moisture  
Dew Point 42 °F    
Average Humidity 84    
Maximum Humidity 93    
Minimum Humidity 61    
Precipitation  
Precipitation 0.00 in - - ()
Sea Level Pressure  
Sea Level Pressure 29.91 in    
Wind  
Wind Speed 9 mph ()    
Max Wind Speed 18 mph    
Max Gust Speed -    
Visibility 6.2 miles    
Events      
T = Trace of Precipitation, MM = Missing Value Source: Averaged Metar Reports

Daily Weather History Graph

Daily Weather History Graph

Search for Another Location

Airport or City:

Astronomy

Feb. 24, 2018 Rise Set
Actual Time 7:21 AM +04 6:25 PM +04
Civil Twilight 6:53 AM +04 6:52 PM +04
Nautical Twilight 6:22 AM +04 7:24 PM +04
Astronomical Twilight 5:50 AM +04 7:55 PM +04
Moon 12:30 PM +04 (2/24) 2:15 AM +04 (2/24)
Length of Visible Light 11h 58m
Length of Day
11h 03m
First Quarter, 61% of the Moon is Illuminated
Feb 24
First Quarter
Mar 2
Full
Mar 9
Last Quarter
Mar 17
New
Mar 24
First Quarter

Hourly Weather History & Observations

Time (+04) Temp. Windchill Dew Point Humidity Pressure Visibility Wind Dir Wind Speed Gust Speed Precip Events Conditions
12:00 AM 44.6 °F 40.2 °F 42.8 °F 93% 29.98 in 6.2 mi SSE 8.1 mph - N/A   Overcast
12:30 AM 44.6 °F 40.2 °F 42.8 °F 93% 29.95 in 6.2 mi South 8.1 mph - N/A   Overcast
1:00 AM 44 °F - 42 °F 89% 29.96 in 6 mi ESE 8.9 mph - -   Overcast
1:00 AM 44.6 °F 39.2 °F 42.8 °F 93% 29.95 in 6.2 mi South 10.4 mph - N/A   Overcast
1:30 AM 44.6 °F 39.2 °F 42.8 °F 93% 29.95 in 6.2 mi South 10.4 mph - N/A   Overcast
2:00 AM 44.6 °F 39.2 °F 42.8 °F 93% 29.95 in 6.2 mi SSE 10.4 mph - N/A   Overcast
2:30 AM 44.6 °F 39.2 °F 42.8 °F 93% 29.92 in 6.2 mi SSE 10.4 mph - N/A   Overcast
3:00 AM 44.6 °F 39.2 °F 42.8 °F 93% 29.92 in 6.2 mi South 10.4 mph - N/A   Overcast
4:00 AM 44 °F - 42 °F 88% 29.91 in 6 mi SE 8.9 mph - -   Overcast
4:00 AM 44.6 °F 38.8 °F 42.8 °F 93% 29.89 in 6.2 mi South 11.5 mph - N/A   Overcast
4:30 AM 44.6 °F 38.8 °F 42.8 °F 93% 29.89 in 6.2 mi South 11.5 mph - N/A   Overcast
5:00 AM 44.6 °F 38.4 °F 42.8 °F 93% 29.89 in 6.2 mi South 12.7 mph - N/A   Overcast
5:30 AM 44.6 °F 39.7 °F 42.8 °F 93% 29.89 in 6.2 mi SSW 9.2 mph - N/A   Overcast
6:00 AM 44.6 °F 39.2 °F 42.8 °F 93% 29.89 in 6.2 mi South 10.4 mph - N/A   Overcast
6:30 AM 46.4 °F 39.8 °F 42.8 °F 87% 29.89 in 6.2 mi South 16.1 mph - N/A   Overcast
7:00 AM 45 °F - 41 °F 82% 29.89 in 6 mi SE 15.7 mph - -   Overcast
7:00 AM 46.4 °F 39.5 °F 42.8 °F 87% 29.89 in 6.2 mi South 17.3 mph - N/A   Overcast
7:30 AM 46.4 °F 40.1 °F 42.8 °F 87% 29.89 in 6.2 mi South 15.0 mph - N/A   Overcast
8:00 AM 46.4 °F 39.5 °F 42.8 °F 87% 29.89 in 6.2 mi South 17.3 mph - N/A   Overcast
8:30 AM 46.4 °F 41.5 °F 42.8 °F 87% 29.89 in 6.2 mi SSW 10.4 mph - N/A   Overcast
9:00 AM 46.4 °F 39.8 °F 42.8 °F 87% 29.92 in 6.2 mi SSW 16.1 mph - N/A   Overcast
9:30 AM 46.4 °F 40.1 °F 42.8 °F 87% 29.92 in 6.2 mi SSW 15.0 mph - N/A   Overcast
10:00 AM 47 °F - 44 °F 83% 29.91 in 6 mi SSE 17.9 mph - -   Overcast
10:00 AM 48.2 °F - 44.6 °F 87% 29.92 in 6.2 mi SSW 16.1 mph - N/A   Overcast
10:30 AM 48.2 °F - 42.8 °F 82% 29.89 in 6.2 mi SSW 15.0 mph - N/A   Overcast
11:00 AM 50.0 °F - 44.6 °F 82% 29.89 in 6.2 mi SSW 13.8 mph - N/A   Overcast
11:30 AM 50.0 °F - 42.8 °F 76% 29.89 in 6.2 mi SSW 15.0 mph - N/A   Overcast
12:00 PM 50.0 °F - 42.8 °F 76% 29.89 in 6.2 mi SSW 13.8 mph - N/A   Overcast
12:30 PM 50.0 °F - 42.8 °F 76% 29.89 in 6.2 mi SSW 16.1 mph - N/A   Overcast
1:00 PM 50 °F - 44 °F 71% 29.89 in 6 mi South 15.7 mph - -   Mostly Cloudy
1:00 PM 50.0 °F - 44.6 °F 82% 29.89 in 6.2 mi South 12.7 mph - N/A   Mostly Cloudy
1:30 PM 50.0 °F - 44.6 °F 82% 29.89 in 6.2 mi SSW 11.5 mph - N/A   Overcast
2:00 PM 48.2 °F - 39.2 °F 71% 29.89 in 6.2 mi NW 9.2 mph - N/A   Overcast
2:30 PM 48.2 °F - 39.2 °F 71% 29.86 in 6.2 mi NW 8.1 mph - N/A   Overcast
3:00 PM 48.2 °F - 39.2 °F 71% 29.89 in 6.2 mi NNW 6.9 mph - N/A   Overcast
3:30 PM 48.2 °F - 39.2 °F 71% 29.89 in 6.2 mi North 4.6 mph - N/A   Overcast
4:00 PM 48 °F - 39 °F 61% 29.88 in 6 mi Calm Calm - -   Overcast
4:00 PM 48.2 °F - 39.2 °F 71% 29.89 in 6.2 mi North 4.6 mph - N/A   Overcast
4:30 PM 48.2 °F - 39.2 °F 71% 29.89 in 6.2 mi North 5.8 mph - N/A   Overcast
5:00 PM 46.4 °F 42.9 °F 41.0 °F 81% 29.89 in 6.2 mi NNE 6.9 mph - N/A   Overcast
5:30 PM 46.4 °F 42.4 °F 41.0 °F 81% 29.89 in 6.2 mi North 8.1 mph - N/A   Overcast
6:00 PM 46.4 °F 42.4 °F 41.0 °F 81% 29.89 in 6.2 mi North 8.1 mph - N/A   Overcast
6:30 PM 44.6 °F 40.2 °F 41.0 °F 87% 29.89 in 6.2 mi NNW 8.1 mph - N/A   Overcast
7:00 PM 44.6 °F 41.4 °F 41.0 °F 87% 29.92 in 6.2 mi North 5.8 mph - N/A   Overcast
7:30 PM 44.6 °F 42.2 °F 41.0 °F 87% 29.92 in 6.2 mi NNW 4.6 mph - N/A   Overcast
8:00 PM 44.6 °F 43.1 °F 41.0 °F 87% 29.92 in 6.2 mi NNW 3.5 mph - N/A   Overcast
8:30 PM 44.6 °F 43.1 °F 41.0 °F 87% 29.92 in 6.2 mi NW 3.5 mph - N/A   Overcast
9:00 PM 44.6 °F 42.2 °F 41.0 °F 87% 29.92 in 6.2 mi NNW 4.6 mph - N/A   Overcast
9:30 PM 44.6 °F 42.2 °F 41.0 °F 87% 29.92 in 6.2 mi NNW 4.6 mph - N/A   Overcast
10:00 PM 44 °F - 41 °F 83% 29.93 in 6 mi North 2.2 mph - -   Overcast
10:00 PM 44.6 °F 43.1 °F 41.0 °F 87% 29.92 in 6.2 mi NW 3.5 mph - N/A   Overcast
10:30 PM 44.6 °F 41.4 °F 41.0 °F 87% 29.92 in 6.2 mi NNW 5.8 mph - N/A   Overcast
11:00 PM 44.6 °F - 41.0 °F 87% 29.89 in 6.2 mi NNW 2.3 mph - N/A   Overcast
11:30 PM 44.6 °F - 41.0 °F 87% 29.89 in 6.2 mi Calm Calm - N/A   Overcast